Temp
43 45 46 44 44 44 45 44 46 52 53 53 53 52 52 51 51 52 52 52 52 52 52 53 53 53 54
43 43 43 43 43 42 43 44 44 49 51 51 51 50 51 50 50 50 50 49 49 48 49 49 50 51 51
42 44 42 42 40 40 40 41 43 45 47 49 50 49 49 49 49 48 48 48 47 47 47 47 47 48 49
41 41 40 40 41 38 37 38 37 41 43 45 45 47 48 48 47 46 46 46 46 46 46 45 45 46 46
39 38 37 37 37 38 36 36 34 35 37 37 39 39 40 44 45 45 45 45 44 45 45 45 44 44 44
38 37 36 37 37 37 35 34 32 32 35 34 33 32 33 40 45 45 44 43 44 44 44 43 43 43 43
36 36 35 36 36 34 33 33 29 25 28 25 27 29 31 34 44 43 43 43 43 42 42 42 42 42 41
35 33 31 31 31 31 29 23 25 26 28 24 24 25 28 29 41 42 42 42 42 41 41 40 40 40 39
40 40 40 39 34 31 27 27 26 27 27 27 25 27 27 27 30 39 40 40 40 39 39 39 39 39 31
28 30 31 33 35 30 29 25 24 22 26 24 26 25 22 26 27 27 28 36 37 36 37 37 38 30 27
29 27 28 28 28 28 28 28 22 21 26 23 19 20 16 20 26 26 26 26 26 28 33 34 36 34 27
29 27 27 27 27 27 27 27 27 26 26 25 11 15 9 11 18 25 25 24 25 25 25 30 32 32 34
28 27 27 27 28 26 27 27 26 27 28 26 19 20 13 10 13 17 20 24 25 21 23 23 23 24 23
28 28 27 25 23 24 20 21 17 20 26 26 23 19 9 15 16 14 19 14 22 20 21 22 24 25 24
26 25 26 25 23 21 19 15 10 12 15 19 20 21 19 13 9 16 16 16 18 18 19 19 22 24 24
25 25 23 20 18 17 16 11 10 13 11 13 12 10 14 18 24 15 15 14 17 18 19 13 18 23 25
23 22 19 15 16 13 14 13 12 12 11 10 7 5 1 4 17 28 13 13 14 15 16 15 15 22 24
MSLP
1022.76 1023.02 1023.14 1023.52 1023.68 1023.64 1023.67 1023.66 1023.48 1023.11 1022.95 1022.98 1023.24 1023.53 1023.74 1023.97 1023.79 1023.96 1024.05 1023.88 1023.73 1023.82 1023.78 1023.71 1023.48 1023.24 1022.80
1022.76 1023.03 1023.29 1023.55 1023.73 1023.89 1024.00 1023.99 1024.04 1023.68 1023.32 1023.29 1023.56 1023.91 1024.04 1024.23 1024.38 1024.43 1024.32 1024.30 1024.47 1024.58 1024.63 1024.47 1023.93 1023.77 1023.37
1022.75 1022.91 1023.40 1023.71 1024.07 1024.24 1024.41 1024.49 1024.43 1024.30 1024.08 1023.88 1024.04 1024.34 1024.52 1024.68 1024.75 1024.75 1024.81 1024.88 1024.90 1024.79 1025.23 1024.83 1024.57 1024.22 1024.13
1022.86 1023.07 1023.36 1023.82 1024.02 1024.36 1024.77 1024.95 1024.96 1024.88 1024.77 1024.73 1024.87 1024.87 1024.86 1025.01 1025.08 1025.08 1025.22 1025.12 1025.09 1025.25 1025.22 1025.00 1024.84 1024.77 1024.63
1022.94 1023.24 1023.56 1023.95 1024.19 1024.40 1024.78 1025.17 1025.66 1025.60 1025.33 1025.51 1025.37 1025.53 1025.58 1025.47 1025.32 1025.32 1025.42 1025.54 1025.43 1025.38 1025.38 1025.26 1025.20 1025.10 1025.00
1022.99 1023.32 1023.72 1023.99 1024.27 1024.48 1024.84 1025.41 1025.87 1025.98 1025.93 1026.12 1026.17 1026.27 1026.18 1025.79 1025.56 1025.53 1025.62 1025.72 1025.64 1025.68 1025.71 1025.71 1025.68 1025.52 1025.30
1023.05 1023.52 1023.90 1024.13 1024.40 1024.79 1025.16 1025.64 1026.27 1026.58 1026.50 1026.73 1026.89 1026.66 1026.58 1026.30 1025.78 1025.81 1025.97 1025.97 1026.00 1026.10 1026.17 1026.13 1025.99 1025.71 1025.54
1023.26 1023.78 1024.15 1024.49 1024.68 1024.89 1025.42 1026.21 1026.72 1026.89 1026.68 1027.08 1027.09 1027.08 1027.00 1026.78 1026.18 1026.12 1026.15 1026.16 1026.29 1026.46 1026.43 1026.26 1025.97 1025.69 1025.60
1023.61 1023.71 1023.96 1024.38 1024.80 1025.08 1025.77 1026.21 1026.78 1027.05 1027.09 1027.16 1027.45 1027.34 1027.21 1027.20 1027.06 1026.69 1026.49 1026.53 1026.62 1026.67 1026.46 1026.20 1025.88 1025.65 1025.75
1024.89 1025.02 1025.12 1025.11 1025.16 1025.39 1025.69 1026.22 1026.78 1027.26 1027.31 1027.42 1027.59 1027.67 1027.75 1027.47 1027.45 1027.39 1027.23 1026.96 1026.88 1026.83 1026.55 1026.21 1025.85 1025.81 1025.77
1025.30 1025.61 1025.75 1025.85 1026.07 1026.14 1026.16 1026.22 1026.61 1027.25 1027.49 1027.61 1028.09 1028.17 1028.15 1027.97 1027.67 1027.53 1027.52 1027.49 1027.41 1027.12 1026.73 1026.37 1025.94 1025.70 1025.77
1025.55 1025.94 1026.21 1026.50 1026.74 1026.81 1026.77 1026.76 1026.88 1027.33 1027.74 1027.68 1028.34 1028.47 1028.48 1028.57 1028.28 1027.81 1027.71 1027.70 1027.56 1027.41 1027.09 1026.58 1026.14 1025.84 1025.48
1025.69 1026.15 1026.49 1026.77 1027.03 1027.26 1027.32 1027.37 1027.63 1027.83 1027.91 1027.89 1028.14 1028.26 1028.49 1028.78 1028.74 1028.58 1028.15 1027.84 1027.74 1027.74 1027.23 1026.77 1026.44 1026.12 1025.85
1025.80 1026.31 1026.67 1027.00 1027.31 1027.46 1027.77 1028.05 1028.34 1028.47 1028.20 1028.06 1027.99 1028.30 1028.77 1028.83 1028.84 1028.87 1028.56 1028.51 1027.93 1027.75 1027.36 1026.89 1026.39 1026.05 1025.93
1025.99 1026.44 1026.82 1027.18 1027.56 1027.76 1028.12 1028.54 1029.07 1029.15 1028.92 1028.58 1028.51 1028.42 1028.57 1028.86 1029.02 1028.82 1028.72 1028.54 1028.34 1028.00 1027.50 1026.99 1026.34 1025.94 1025.63
1026.07 1026.44 1026.91 1027.46 1027.92 1028.21 1028.38 1029.07 1029.53 1029.63 1029.68 1029.33 1029.08 1029.10 1029.05 1028.75 1028.37 1028.56 1028.61 1028.62 1028.31 1027.89 1027.64 1027.49 1026.55 1025.69 1025.43
1026.07 1026.55 1027.09 1027.70 1028.18 1028.73 1029.00 1029.60 1029.81 1029.90 1029.93 1029.79 1029.70 1029.86 1029.95 1029.69 1028.78 1028.11 1028.63 1028.48 1028.29 1027.97 1027.55 1027.30 1027.00 1025.75 1025.32
Wind_Speed
2 2 3 4 3 4 4 5 5 11 7 9 13 12 11 9 10 10 10 12 14 13 11 13 14 15 16
1 2 2 3 3 4 3 4 4 11 12 13 14 12 11 11 9 8 12 12 13 12 11 12 14 14 14
2 2 2 2 3 3 3 3 4 9 12 12 12 11 9 9 9 11 12 11 13 11 10 12 13 14 13
2 2 2 2 2 2 2 2 3 3 8 9 8 8 8 9 10 10 11 12 12 9 10 12 13 14 14
2 2 2 2 2 1 2 2 2 3 2 3 3 3 4 6 8 10 11 9 8 10 11 12 12 12 14
2 2 2 2 2 2 2 2 2 3 2 2 3 2 3 3 6 8 9 6 8 9 10 11 11 11 11
4 2 3 2 3 2 2 2 2 3 1 1 3 1 3 4 4 7 5 4 6 8 8 9 10 11 11
6 4 3 4 3 2 3 4 2 1 2 2 2 1 3 3 6 3 5 6 6 8 9 10 11 11 12
15 14 11 9 7 3 2 3 1 2 4 2 1 1 2 2 4 8 7 7 8 10 11 12 12 12 7
4 8 9 9 11 5 3 2 2 2 2 2 2 2 2 1 2 3 3 8 8 12 13 13 13 3 3
4 4 5 5 5 5 4 3 3 2 2 3 1 1 2 1 1 2 3 3 3 5 12 13 13 8 3
3 3 3 3 3 4 6 7 6 5 2 2 3 2 2 2 1 3 2 2 3 4 4 8 10 10 9
3 2 2 3 4 3 5 6 5 4 4 3 2 2 3 2 1 1 2 2 2 2 4 4 3 3 4
3 3 3 2 2 1 2 2 2 2 3 5 4 3 2 0 2 1 1 1 3 3 3 3 3 2 2
3 3 2 2 2 1 2 2 3 1 3 3 4 3 1 4 2 1 2 2 2 3 3 3 3 4 3
2 2 3 2 2 1 2 3 2 1 1 3 3 3 4 2 2 0 1 1 2 3 2 2 4 2 3
2 3 3 2 4 2 2 2 1 1 1 2 3 3 3 2 3 2 2 2 2 3 2 2 3 7 5
Wind_Direction
124 141 110 110 82 59 49 40 16 28 101 116 104 91 82 73 66 65 63 59 51 41 29 30 29 26 25
143 127 97 76 84 73 44 47 28 29 71 94 97 90 87 82 74 78 81 69 61 46 37 30 28 24 24
154 102 104 131 81 61 48 51 40 34 52 70 87 88 90 88 85 81 78 71 67 49 37 33 27 22 17
190 112 108 88 99 138 105 49 41 27 51 64 65 74 89 94 95 85 74 61 50 38 31 29 24 18 11
162 118 124 134 179 143 107 119 65 5 70 43 37 44 35 71 85 78 71 52 39 31 23 20 16 13 8
145 142 143 132 133 138 119 148 151 29 18 74 14 27 359 13 66 79 63 35 30 25 19 13 6 3 5
151 127 131 136 129 123 105 90 91 321 54 40 357 42 354 353 31 76 71 43 37 30 16 9 2 357 355
86 105 106 121 112 133 128 115 93 39 11 115 337 18 346 4 17 86 51 57 47 28 15 4 356 355 354
84 82 100 100 115 97 78 95 81 49 14 74 8 352 26 29 11 47 54 47 49 23 9 358 351 357 348
56 59 58 61 60 55 123 119 117 54 356 87 8 24 46 39 39 29 25 44 42 23 9 359 352 2 344
89 73 62 56 47 44 40 99 116 91 322 94 38 26 87 296 353 26 29 17 20 358 358 350 349 349 323
98 81 78 73 62 58 58 63 60 97 53 103 144 132 126 5 22 345 15 31 21 340 334 333 340 348 344
118 109 104 127 115 79 71 71 62 55 58 38 119 125 109 153 195 321 12 329 352 317 313 321 316 331 335
124 115 121 109 109 104 86 57 68 355 28 37 40 109 106 141 117 313 331 341 325 325 295 288 303 303 297
132 136 128 117 95 71 87 63 85 24 339 344 16 43 87 149 79 227 284 319 296 297 345 310 301 316 311
121 135 135 130 112 68 80 86 111 45 19 337 353 25 11 345 189 259 336 271 300 313 293 307 306 296 295
141 143 130 131 126 96 90 95 72 82 28 16 37 81 62 6 293 284 174 274 311 313 260 212 253 293 299